Location: Huntsville
(41.2590°N, 111.7678°W)
Time: 20:27:30
(UTC+00:00)

Explorer 7 - Pass Details

Date: 19 June 2021
Orbit: 484 x 676 km, 50.3° (Epoch: 30 July)

Event Time Altitude Azimuth Distance (km) Brightness Sun altitude
Rises 09:33:19 0° 303° (WNW) 2,959 10.6 -19.1°
Reaches altitude 10° 09:35:47 10° 309° (NW) 2,020 9.8 -18.9°
Maximum altitude 09:40:17 48° 24° (NNE) 793 8.0 -18.5°
Drops below altitude 10° 09:44:31 10° 100° (E) 1,897 9.8 -18.0°
Sets 09:46:46 0° 106° (ESE) 2,759 10.6 -17.8°
